Location: Gorze? G�rny
(49.8500°N, 19.5000°E)
Time: 03:05:27
(UTC+00:00)

COSMOS 2406 - Pass Details

Date: 13 May 2021
Orbit: 844 x 862 km, 71.0° (Epoch: 23 June)

Event Time Altitude Azimuth Distance (km) Brightness Sun altitude
Rises 19:35:37 0° 329° (NNW) 3,415 8.2 -10.6°
Reaches altitude 10° 19:38:05 10° 326° (NNW) 2,477 7.2 -10.8°
Maximum altitude 19:43:42 65° 246° (WSW) 932 3.5 -11.4°
Enters shadow 19:48:52 12° 167° (SSE) 2,307 4.9 -12.0°
